Wind_Speed
11 15 15 16 11 11 11 21 24 14 5 8 15 23 30 28 28 27 27 40 42 41 42 43 42 46 48 58 68 72 73 82 80 63 56 43 47 53 47 54 55 56 69
12 15 18 12 11 13 12 15 22 19 10 14 18 27 31 31 25 25 27 37 37 41 47 47 44 42 46 51 57 61 72 82 64 67 57 61 53 51 53 53 56 54 60
15 14 14 10 13 15 13 9 14 24 15 12 20 20 27 27 21 14 17 29 32 35 42 46 50 46 44 46 49 46 63 73 63 56 50 47 52 53 50 52 54 60 63
17 18 16 14 15 17 13 7 8 16 22 10 19 21 24 25 18 18 18 34 42 38 35 31 37 45 43 50 51 51 43 65 63 57 51 52 52 50 47 54 59 58 56
9 21 15 16 18 20 11 13 12 10 17 18 16 20 25 19 16 22 26 40 43 39 37 41 39 32 48 50 46 40 33 49 63 55 52 58 60 56 56 59 63 67 69
5 22 22 18 17 21 16 8 6 13 19 22 15 21 24 23 22 23 27 41 39 34 35 36 30 31 34 50 51 39 41 44 52 46 46 56 64 70 71 64 66 72 70
2 11 24 22 14 18 17 11 6 6 12 17 15 14 21 21 21 30 30 34 41 44 42 44 34 41 35 36 50 47 49 53 54 54 57 55 50 53 55 59 64 67 73
2 5 21 24 20 14 13 14 12 6 3 4 15 16 13 23 24 23 29 27 38 42 42 42 45 42 39 43 44 53 53 56 57 56 59 62 63 65 69 73 74 78 83
1 4 11 24 22 23 17 19 19 16 10 8 4 9 17 17 31 29 28 32 29 31 43 41 42 50 49 44 40 43 50 49 56 60 63 61 66 69 70 76 78 83 84
3 1 3 11 18 19 19 19 19 18 14 10 11 11 10 13 16 28 36 40 35 38 39 36 45 44 49 53 52 49 51 59 56 61 66 66 69 71 71 71 77 76 73
6 3 3 6 9 12 12 14 19 15 17 17 16 18 20 17 16 18 20 39 46 42 44 45 46 45 48 47 49 52 54 59 61 64 67 68 65 64 64 64 67 69 71
7 7 5 3 7 9 9 11 12 13 14 17 17 21 24 26 26 24 24 28 31 33 40 44 49 51 51 55 55 57 56 54 54 52 51 52 56 60 61 61 61 63 66
6 8 8 8 7 6 9 12 12 12 12 13 15 19 22 24 30 30 33 37 35 35 34 33 33 35 37 40 42 45 46 49 52 53 57 56 51 48 48 50 55 62 67
13 9 10 10 10 10 9 10 9 12 15 15 16 18 20 21 24 27 31 35 39 41 40 42 41 44 45 45 46 45 43 43 43 44 45 43 41 42 41 39 47 60 61
17 16 14 12 10 10 12 11 10 11 13 13 15 16 18 19 20 24 28 29 29 31 32 32 34 35 35 36 37 39 41 38 37 38 38 38 39 43 50 54 64 70 72
20 20 19 17 15 13 9 8 8 9 11 11 12 14 16 18 18 19 19 21 26 29 31 30 30 30 31 30 30 34 36 36 37 39 39 38 39 46 53 68 74 76 80
30 26 23 21 17 17 15 12 9 9 11 11 13 16 16 18 20 20 21 21 23 26 27 28 29 30 30 31 33 36 38 40 41 43 46 50 52 56 71 74 74 76 82
23 26 25 23 22 18 18 17 17 17 17 16 15 16 16 17 20 20 22 23 25 27 29 30 31 33 34 35 36 37 39 41 41 47 52 55 62 65 71 71 74 84 86
26 26 27 28 25 23 24 24 23 23 23 22 22 22 23 23 23 23 25 27 29 30 32 34 34 37 36 34 35 37 41 46 50 53 54 59 67 70 71 75 80 87 90
36 32 30 30 31 30 29 29 27 28 27 26 28 28 29 27 27 29 31 30 32 33 35 36 36 39 38 38 39 42 46 46 50 54 60 69 70 71 79 83 87 91 93
40 41 39 38 34 34 32 35 35 33 29 26 25 28 30 27 26 29 31 30 31 33 36 40 42 40 40 42 43 48 51 54 60 65 71 76 78 81 84 89 94 96 98
38 43 44 43 44 41 36 35 36 36 38 34 30 36 36 29 29 32 35 35 34 36 39 40 39 41 40 44 50 55 58 65 68 73 75 76 80 85 90 94 96 98 105
38 42 47 48 45 45 44 42 41 39 38 39 36 43 44 40 38 41 42 44 41 39 39 41 44 45 48 53 56 60 66 68 72 78 79 80 87 92 94 95 100 107 112
42 42 47 51 51 47 47 48 47 46 41 35 40 47 50 42 43 45 49 49 48 47 47 48 50 53 56 60 61 65 69 74 79 79 81 87 93 95 95 100 106 109 113
48 44 45 49 51 54 49 51 51 52 47 42 42 44 46 49 47 46 48 49 49 55 57 56 59 61 63 65 68 70 73 77 79 80 84 92 95 95 99 105 107 113 118
55 50 45 49 53 56 51 46 45 48 45 44 44 42 44 46 51 52 54 54 56 58 58 60 61 63 67 70 72 74 76 79 81 85 91 95 95 99 102 106 113 114 117
Wind_Direction
146 139 138 132 77 64 29 31 25 31 52 62 105 113 114 128 129 138 140 149 155 158 159 162 165 169 174 185 191 191 194 197 205 214 224 235 245 247 252 257 263 268 267
145 150 159 155 90 99 36 21 32 42 78 98 122 114 125 129 140 153 157 161 160 154 153 153 157 163 181 182 189 192 195 199 209 216 226 232 244 251 254 261 264 273 268
160 156 173 137 104 108 80 33 40 36 48 118 135 127 127 137 129 144 157 162 150 150 157 161 160 172 172 183 185 198 194 200 212 219 226 237 241 252 256 265 266 265 269
177 161 165 153 143 132 95 66 43 49 44 95 147 140 132 144 156 140 137 151 141 140 140 154 175 185 172 174 180 189 204 206 213 219 231 237 242 246 248 253 262 259 264
180 181 176 173 147 146 129 88 72 73 50 66 138 150 130 130 136 148 152 152 153 148 155 157 174 191 190 183 184 194 210 214 215 228 240 243 243 247 255 258 262 268 265
160 191 186 182 181 166 156 134 95 79 81 70 104 153 164 143 157 162 164 162 162 161 170 181 180 190 196 196 196 202 208 214 223 234 240 246 246 250 253 263 263 264 268
155 181 193 189 187 179 189 203 182 131 98 95 103 133 176 173 166 173 173 176 176 175 179 184 181 194 194 205 203 206 212 214 221 232 237 243 244 251 252 266 266 267 268
94 148 193 194 202 195 199 202 205 196 169 124 117 117 139 183 183 178 189 184 188 190 188 193 196 198 209 208 213 217 220 227 238 244 247 246 248 253 258 264 266 270 275
50 128 181 205 205 208 215 219 219 236 238 227 206 143 134 144 187 188 189 196 185 200 207 202 207 214 214 216 217 235 240 247 243 247 251 255 256 261 270 272 279 276 281
336 247 183 184 207 222 234 235 225 227 238 228 219 218 185 165 156 199 197 195 201 201 205 218 222 224 229 223 229 242 248 246 252 258 258 266 269 272 274 276 276 278 282
300 306 290 242 209 210 221 220 222 224 230 232 220 217 211 209 204 194 195 211 211 216 220 226 227 227 231 235 242 248 254 257 260 263 267 271 271 272 276 281 284 288 288
280 282 278 278 258 235 212 215 224 229 226 218 220 220 219 220 221 218 210 208 212 218 224 229 237 242 241 246 251 254 258 260 263 267 272 274 277 280 285 289 292 295 295
258 275 270 270 261 261 246 240 240 232 229 226 226 224 224 225 223 225 226 224 229 234 238 238 241 244 246 249 252 257 263 265 268 273 277 278 280 289 292 291 295 296 296
281 266 265 262 265 260 258 261 255 247 238 237 236 233 230 229 228 232 234 234 237 240 245 245 249 250 254 258 260 264 266 267 271 276 280 284 285 288 297 305 308 313 318
276 273 273 266 260 262 259 258 255 248 248 250 247 246 241 239 240 242 241 241 241 241 244 245 251 255 255 257 261 267 271 275 279 282 286 284 283 283 293 300 310 313 313
267 270 270 273 272 264 258 253 250 253 254 254 254 252 248 247 242 242 243 243 243 246 249 253 258 262 264 267 271 273 277 278 278 279 276 276 286 292 301 309 311 311 314
259 264 265 261 263 272 262 259 263 262 258 259 256 257 257 256 255 254 251 250 253 254 256 258 260 260 262 265 267 271 275 276 277 280 282 284 286 295 306 310 314 316 316
261 254 256 255 253 248 253 253 254 255 258 258 253 253 256 253 256 258 260 258 257 257 258 260 263 268 270 272 271 270 275 277 274 279 283 290 298 304 306 308 312 317 318
261 266 258 251 251 248 251 253 256 261 263 264 262 261 261 260 261 262 261 262 265 266 268 270 272 273 273 269 273 277 279 283 287 288 292 297 301 307 309 312 315 318 317
262 261 260 256 253 249 252 253 253 255 258 257 260 261 261 265 268 272 269 271 272 274 275 273 274 275 273 274 278 281 283 286 289 292 295 302 311 312 314 315 316 316 315
255 257 260 254 251 253 258 260 259 257 254 257 255 257 258 256 263 265 267 270 274 279 280 281 280 276 276 278 277 278 282 286 292 297 304 309 315 314 314 316 316 316 314
263 253 252 257 255 257 258 259 254 256 255 253 256 262 264 258 258 261 270 273 278 283 282 281 279 277 275 278 282 285 288 294 301 306 310 315 315 315 314 315 316 314 313
271 264 253 254 256 256 255 261 259 253 254 260 255 255 259 264 268 268 270 278 280 277 275 274 276 279 280 283 286 290 295 300 305 308 311 313 314 314 314 313 313 313 312
269 266 261 254 256 256 255 255 257 259 257 261 258 252 254 260 264 270 272 280 281 279 280 280 282 282 283 285 287 293 298 301 305 308 311 312 312 312 312 313 312 310 309
271 265 264 262 256 258 260 260 258 259 264 264 260 254 254 261 266 268 277 280 281 284 281 279 282 283 285 287 290 296 299 302 304 308 307 309 311 311 310 311 311 310 309
268 267 259 263 257 254 259 259 258 261 259 260 264 260 259 264 268 271 277 274 274 278 280 281 284 282 283 289 293 295 297 300 303 304 307 308 307 309 311 311 311 310 309
Height
10635 10635 10638 10638 10639 10640 10637 10633 10627 10621 10619 10618 10619 10620 10622 10625 10628 10633 10636 10639 10642 10649 10657 10666 10674 10684 10693 10703 10712 10723 10736 10747 10754 10760 10764 10764 10763 10766 10769 10765 10768 10771 10770
10635 10637 10639 10640 10642 10643 10641 10638 10633 10627 10625 10624 10626 10630 10630 10633 10636 10638 10641 10644 10650 10658 10664 10669 10677 10687 10694 10705 10715 10726 10734 10745 10752 10756 10758 10761 10763 10765 10764 10764 10763 10765 10765
10636 10638 10640 10642 10644 10645 10645 10641 10639 10634 10631 10630 10632 10636 10638 10640 10642 10643 10646 10651 10657 10663 10671 10678 10683 10691 10700 10709 10719 10725 10735 10745 10748 10751 10754 10756 10759 10758 10760 10759 10758 10755 10754
10637 10638 10641 10644 10646 10648 10648 10647 10644 10642 10638 10635 10637 10640 10643 10647 10650 10652 10653 10658 10662 10670 10678 10684 10690 10692 10702 10709 10716 10724 10730 10736 10741 10745 10749 10752 10752 10751 10751 10751 10750 10751 10751
10636 10639 10641 10644 10647 10649 10650 10651 10650 10647 10644 10641 10643 10646 10650 10652 10655 10659 10662 10667 10672 10678 10684 10690 10693 10695 10704 10710 10716 10722 10728 10733 10736 10741 10745 10745 10744 10746 10746 10747 10745 10744 10740
10636 10637 10641 10644 10647 10650 10651 10652 10654 10654 10651 10650 10649 10652 10655 10658 10661 10664 10668 10672 10677 10682 10687 10690 10695 10701 10705 10711 10715 10720 10724 10729 10734 10733 10735 10736 10738 10741 10741 10739 10736 10732 10726
10637 10636 10639 10643 10647 10650 10652 10653 10655 10656 10656 10657 10656 10657 10660 10663 10666 10669 10672 10675 10679 10683 10686 10692 10699 10702 10706 10712 10717 10719 10721 10721 10727 10731 10732 10732 10732 10731 10730 10726 10724 10719 10715
10638 10636 10638 10642 10646 10648 10651 10653 10655 10656 10658 10659 10661 10661 10663 10665 10669 10673 10676 10681 10685 10688 10691 10696 10700 10704 10708 10712 10715 10717 10718 10723 10725 10726 10726 10726 10725 10723 10722 10717 10713 10708 10703
10639 10639 10639 10641 10645 10648 10650 10652 10654 10656 10658 10661 10662 10664 10665 10667 10671 10675 10679 10682 10686 10691 10694 10697 10701 10704 10705 10709 10711 10715 10718 10717 10716 10716 10716 10716 10715 10714 10710 10705 10702 10698 10692
10640 10640 10641 10641 10644 10646 10648 10649 10652 10654 10656 10659 10661 10664 10666 10667 10670 10674 10678 10681 10685 10688 10691 10694 10696 10699 10701 10703 10706 10707 10707 10708 10710 10710 10709 10709 10708 10704 10697 10691 10689 10685 10681
10640 10640 10641 10643 10643 10644 10646 10648 10651 10652 10654 10657 10659 10662 10665 10667 10669 10671 10673 10678 10681 10684 10687 10689 10691 10694 10695 10697 10698 10698 10700 10701 10701 10700 10699 10696 10692 10688 10684 10682 10676 10669 10663
10639 10640 10641 10642 10643 10644 10645 10646 10648 10649 10651 10654 10657 10659 10661 10663 10666 10669 10670 10673 10676 10678 10679 10681 10684 10687 10690 10691 10690 10690 10690 10691 10689 10687 10686 10684 10681 10678 10672 10669 10660 10653 10645
10638 10639 10639 10640 10642 10644 10645 10646 10648 10648 10649 10651 10654 10656 10659 10660 10662 10665 10667 10670 10672 10673 10674 10675 10677 10678 10679 10681 10680 10679 10679 10679 10678 10676 10675 10673 10670 10665 10660 10656 10650 10643 10633
10635 10636 10637 10638 10639 10641 10642 10644 10645 10647 10648 10650 10651 10652 10653 10656 10658 10660 10661 10663 10664 10665 10667 10669 10670 10672 10672 10672 10672 10672 10670 10668 10668 10665 10663 10660 10657 10654 10649 10643 10636 10629 10618
10632 10633 10634 10635 10636 10637 10638 10640 10642 10643 10645 10647 10648 10648 10649 10651 10652 10654 10655 10656 10657 10658 10660 10662 10664 10664 10664 10664 10664 10662 10659 10659 10658 10654 10651 10648 10644 10639 10634 10627 10619 10611 10603
10628 10629 10630 10631 10633 10634 10634 10636 10638 10639 10641 10642 10644 10645 10646 10647 10648 10649 10651 10652 10653 10653 10654 10654 10654 10654 10655 10655 10655 10650 10648 10648 10646 10642 10638 10635 10630 10624 10617 10612 10602 10592 10582
10623 10625 10626 10627 10628 10630 10631 10632 10634 10635 10635 10637 10638 10638 10640 10642 10642 10643 10645 10646 10646 10646 10647 10646 10646 10645 10645 10647 10644 10640 10637 10635 10633 10630 10626 10620 10615 10610 10604 10594 10583 10573 10561
10617 10619 10621 10622 10623 10625 10627 10628 10629 10630 10631 10632 10633 10634 10635 10636 10636 10637 10637 10638 10638 10638 10639 10639 10639 10638 10637 10635 10634 10633 10630 10627 10623 10619 10614 10610 10605 10597 10588 10578 10567 10555 10540
10611 10612 10614 10617 10618 10620 10622 10623 10624 10625 10626 10627 10627 10628 10629 10630 10632 10632 10632 10632 10631 10632 10632 10632 10632 10628 10627 10627 10625 10623 10619 10615 10611 10606 10602 10596 10590 10580 10570 10560 10547 10533 10518
10602 10605 10607 10609 10612 10614 10615 10617 10618 10619 10619 10620 10620 10622 10622 10623 10624 10624 10624 10624 10624 10624 10621 10621 10621 10618 10617 10615 10613 10609 10605 10602 10597 10592 10587 10579 10569 10559 10548 10536 10525 10511 10495
10592 10594 10595 10598 10602 10604 10608 10610 10611 10612 10613 10613 10614 10612 10612 10613 10614 10614 10614 10615 10615 10615 10613 10611 10609 10608 10607 10603 10600 10595 10592 10587 10582 10576 10568 10559 10548 10539 10528 10515 10501 10487 10473
10583 10583 10585 10587 10590 10593 10595 10596 10599 10601 10604 10605 10608 10602 10599 10606 10605 10604 10603 10604 10605 10605 10602 10602 10598 10595 10593 10589 10585 10581 10576 10571 10564 10557 10548 10538 10528 10518 10506 10494 10479 10465 10453
10570 10572 10574 10574 10578 10581 10583 10585 10587 10589 10592 10597 10600 10596 10591 10593 10597 10595 10593 10593 10594 10593 10591 10589 10587 10584 10580 10576 10571 10566 10560 10553 10546 10537 10529 10519 10509 10499 10487 10474 10460 10447 10433
10557 10559 10561 10564 10564 10567 10569 10571 10574 10577 10581 10585 10585 10582 10580 10588 10587 10583 10581 10582 10582 10580 10579 10577 10573 10569 10565 10561 10556 10551 10544 10536 10528 10519 10510 10501 10492 10480 10467 10457 10444 10429 10414
10543 10547 10548 10550 10554 10551 10554 10556 10560 10561 10569 10571 10570 10570 10573 10573 10574 10573 10572 10570 10568 10565 10563 10560 10557 10553 10548 10544 10540 10534 10526 10519 10512 10504 10495 10486 10473 10462 10452 10440 10426 10409 10392
10528 10531 10538 10535 10537 10538 10539 10542 10545 10547 10553 10555 10555 10559 10559 10560 10560 10558 10557 10555 10553 10551 10548 10546 10543 10537 10531 10528 10523 10517 10510 10503 10496 10487 10478 10468 10457 10446 10433 10420 10405 10388 10370